This is the latest recevied weather packets stored in our database for station/object K7FLA. If no packets are shown the sender has not sent any weather packets the latest 10 day(s).
| Time | Temp. | Humidity | Pressure | Rain* | Wind** | Luminosity | Snow |
|---|---|---|---|---|---|---|---|
| 1787886861 | 30° C | 41% | 1093.8 hPa | 0 mm | - | 0 W/m² | - |
| 1787886561 | 30.56° C | 41% | 1093.7 hPa | 0 mm | - | 0 W/m² | - |
| 1787886256 | 30.56° C | 41% | 1093.8 hPa | 0 mm | - | 0 W/m² | - |
| 1787885955 | 30.56° C | 40% | 1093.6 hPa | 0 mm | - | 0 W/m² | - |
| 1787885654 | 30.56° C | 40% | 1093.6 hPa | 0 mm | - | 0 W/m² | - |
| 1787885349 | 30.56° C | 39% | 1093.7 hPa | 0 mm | - | 0 W/m² | - |
| 1787885048 | 31.11° C | 39% | 1093.7 hPa | 0 mm | - | 0 W/m² | - |
| 1787884743 | 31.11° C | 39% | 1093.5 hPa | 0 mm | - | 0 W/m² | - |
| 1787884438 | 31.11° C | 38% | 1093.4 hPa | 0 mm | - | 0 W/m² | - |
| 1787884134 | 31.67° C | 39% | 1093.5 hPa | 0 mm | - | 1 W/m² | - |
| 1787883829 | 31.67° C | 35% | 1093.4 hPa | 0 mm | - | 2 W/m² | - |
| 1787883525 | 32.22° C | 36% | 1093.5 hPa | 0 mm | - | 3 W/m² | - |
| 1787883224 | 32.22° C | 36% | 1093.2 hPa | 0 mm | - | 6 W/m² | - |
| 1787882919 | 32.22° C | 35% | 1093.4 hPa | 0 mm | - | 10 W/m² | - |
| 1787882616 | 32.78° C | 35% | 1093.3 hPa | 0 mm | - | 16 W/m² | - |
| 1787882311 | 32.78° C | 34% | 1093.3 hPa | 0 mm | - | 22 W/m² | - |
| 1787882005 | 32.78° C | 34% | 1093.4 hPa | 0 mm | - | 28 W/m² | - |
| 1787881701 | 33.33° C | 34% | 1093.3 hPa | 0 mm | - | 31 W/m² | - |
| 1787881396 | 33.33° C | 33% | 1093.3 hPa | 0 mm | - | 34 W/m² | - |
| 1787881092 | 33.33° C | 33% | 1093.4 hPa | 0 mm | - | 36 W/m² | - |
| 1787880787 | 33.89° C | 32% | 1093.4 hPa | 0 mm | - | 38 W/m² | - |
| 1787880487 | 33.89° C | 32% | 1093.5 hPa | 0 mm | - | 39 W/m² | - |
| 1787880186 | 33.89° C | 32% | 1093.6 hPa | 0 mm | - | 40 W/m² | - |
| 1787879886 | 33.89° C | 31% | 1093.4 hPa | 0 mm | - | 44 W/m² | - |
| 1787879581 | 34.44° C | 30% | 1093.4 hPa | 0 mm | - | 57 W/m² | - |
* Rain latest hour (hover to see other rain measurements)
** Current wind speed in m/s (hover to see current wind gust speed)